Hourly Data Report for September 07, 2017

All times are specified in Local Standard Time (LST). Add 1 hour to adjust for Daylight Saving Time where and when it is observed.

COMOX A
BRITISH COLUMBIA

49°43'00.000" N
124°54'00.000" W
25.60 m
1021830
71893
YQQ

Download Data

Hourly Data (September 2017)
Hourly Data Report for September 7, 2017
Temp Definition
°C
Dew Point Temp Definition
°C
Rel Hum Definition
%
Wind Dir Definition
10's deg

Wind Spd Definition
km/h
Visibility Definition
km
Stn Press Definition
kPa
Hmdx Definition


Wind Chill Definition


Weather Definition


TIME
00:00 18.9 16.1 84 12 4 16.1 100.93     Mostly Cloudy
01:00 19.4 16.2 82 1 7 16.1 100.94     Cloudy
02:00 20.0 16.0 78 25 7 16.1 101.00 25   Cloudy
03:00 19.0 16.3 84 2 13 16.1 101.00     Rain Showers
04:00 18.6 16.5 88 33 7 16.1 101.03     Rain Showers
05:00 18.3 16.3 88 35 7 16.1 100.95     Cloudy
06:00 18.5 16.1 86 29 6 12.9 100.96     Mostly Cloudy
07:00 17.9 16.2 90 35 7 12.9 100.96     Rain Showers
08:00 18.6 16.8 89 32 6 12.9 101.00     Cloudy
09:00 19.6 16.3 81 32 4 12.9 101.05     Cloudy
10:00 19.3 16.1 82 34 13 12.9 101.00     Cloudy
11:00 19.7 16.2 80 30 7 12.9 101.04     Rain Showers
12:00 20.5 16.6 78 33 11 12.9 100.98 26   Cloudy
13:00 19.4 16.0 81 35 20 12.9 100.98     Cloudy
14:00 18.2 16.6 90 34 17 12.9 100.92     Rain Showers
15:00 18.0 16.4 90 34 19 12.9 100.90     Rain Showers
16:00 18.6 16.3 86 33 15 12.9 100.93     Rain Showers
17:00 18.5 16.4 88 32 15 12.9 100.88     Rain Showers
18:00 18.0 16.2 89 34 19 11.3 100.90     Rain Showers
19:00 17.5 15.8 90 35 19 9.7 100.84     Rain Showers,Smoke
20:00 17.3 15.8 91 31 9 11.3 100.91     Cloudy
21:00 17.9 15.2 84 33 11 16.1 100.91     Cloudy
22:00 17.0 14.9 87 35 22 16.1 100.92     Cloudy
23:00 16.0 14.5 91 35 15 19.3 100.93     Cloudy

Notes on Data Quality.

Legend

  • E = Estimated
  • M = Missing
  • NA = Not Available
  • ‡ = Partner data that is not subject to review by the National Climate Archives
Date modified: